TimeAST,TemperatureF,Dew PointF,Humidity,Sea Level PressureIn,VisibilityMPH,Wind Direction,Wind SpeedMPH,Gust SpeedMPH,PrecipitationIn,Events,Conditions,WindDirDegrees,DateUTC
12:56 AM,77.0,68.0,74,30.02,10.0,NNE,16.1,20.7,N/A,,Mostly Cloudy,30,2012-02-14 04:56:00
1:56 AM,75.9,68.0,76,30.00,10.0,NE,12.7,20.7,N/A,,Mostly Cloudy,40,2012-02-14 05:56:00
2:56 AM,75.0,68.0,79,29.99,10.0,NE,10.4,-,N/A,,Mostly Cloudy,50,2012-02-14 06:56:00
3:56 AM,72.0,69.1,91,29.98,9.0,East,6.9,-,0.07,Rain,Light Rain,100,2012-02-14 07:56:00
4:21 AM,71.6,69.8,94,29.98,10.0,East,6.9,-,0.00,Rain,Light Rain,100,2012-02-14 08:21:00
4:33 AM,71.6,69.8,94,29.98,10.0,ESE,4.6,-,0.00,Rain,Light Rain,120,2012-02-14 08:33:00
4:56 AM,73.0,70.0,90,29.98,10.0,SE,3.5,-,0.00,,Overcast,140,2012-02-14 08:56:00
5:56 AM,73.0,70.0,90,30.00,10.0,Calm,Calm,-,N/A,,Overcast,0,2012-02-14 09:56:00
6:56 AM,73.9,69.1,85,30.01,10.0,Calm,Calm,-,N/A,,Overcast,0,2012-02-14 10:56:00
7:56 AM,75.0,68.0,79,30.04,10.0,ENE,13.8,-,0.00,,Overcast,60,2012-02-14 11:56:00
8:56 AM,77.0,69.1,76,30.05,10.0,ENE,13.8,-,N/A,,Mostly Cloudy,70,2012-02-14 12:56:00
9:56 AM,75.0,70.0,84,30.07,10.0,ENE,9.2,-,0.02,Rain,Light Rain,70,2012-02-14 13:56:00
10:56 AM,77.0,69.1,76,30.08,10.0,East,11.5,-,0.00,,Mostly Cloudy,90,2012-02-14 14:56:00
11:56 AM,77.0,71.1,82,30.06,10.0,East,10.4,-,0.00,,Mostly Cloudy,90,2012-02-14 15:56:00
12:56 PM,79.0,66.9,66,30.05,10.0,ENE,13.8,-,N/A,,Mostly Cloudy,70,2012-02-14 16:56:00
1:56 PM,73.9,70.0,87,30.03,9.0,ENE,13.8,-,0.00,Rain,Light Rain,60,2012-02-14 17:56:00
2:56 PM,75.9,68.0,76,30.01,10.0,ENE,4.6,-,0.04,,Mostly Cloudy,70,2012-02-14 18:56:00
3:56 PM,77.0,70.0,79,30.00,10.0,NE,5.8,-,N/A,,Mostly Cloudy,40,2012-02-14 19:56:00
4:56 PM,78.1,69.1,74,30.01,10.0,ENE,11.5,-,N/A,,Scattered Clouds,60,2012-02-14 20:56:00
5:56 PM,77.0,69.1,76,30.02,10.0,ENE,10.4,-,N/A,,Mostly Cloudy,60,2012-02-14 21:56:00
6:56 PM,75.9,68.0,76,30.03,10.0,ENE,8.1,-,N/A,,Mostly Cloudy,70,2012-02-14 22:56:00
7:56 PM,77.0,69.1,76,30.05,10.0,NE,8.1,-,N/A,,Scattered Clouds,50,2012-02-14 23:56:00
8:56 PM,77.0,68.0,74,30.07,10.0,NE,9.2,-,N/A,,Scattered Clouds,40,2012-02-15 00:56:00
9:56 PM,75.9,68.0,76,30.08,10.0,NE,10.4,-,N/A,,Scattered Clouds,50,2012-02-15 01:56:00
10:56 PM,75.9,68.0,76,30.09,10.0,NE,10.4,-,N/A,,Scattered Clouds,50,2012-02-15 02:56:00
11:56 PM,75.9,69.1,79,30.08,10.0,ENE,9.2,-,N/A,,Scattered Clouds,60,2012-02-15 03:56:00